{"data":{"norad_id":59469,"epoch":"2026-05-25T04:55:48.379584Z","epoch_age_seconds":57465,"freshness":"FRESH","line1":"1 59469U 24068Q   26145.20542106  .00004492  00000+0  17269-3 0  9997","line2":"2 59469  43.0035 319.0406 0001774 266.0927  93.9722 15.27577105120267","mean_motion":15.27577105,"eccentricity":0.0001774,"inclination_deg":43.0035,"raan_deg":319.0406,"arg_perigee_deg":266.0927,"mean_anomaly_deg":93.9722,"bstar":0.00017269,"rev_number":12026,"period_min":94.266927364036,"perigee_km":481.84058877355,"apogee_km":484.27494067608,"semimajor_km":6861.1947647248,"source":"CELESTRAK","updated_at":"2026-05-25T13:38:18.950694Z"}}